GFSNGP_500_rhum_063.txt.gz
RH
93 100 95 96 87 61 46 44 64 67 60 65 98 99 93 99 95 87 68 50 46 45 48 25 23 31 36 34 42 59 58 46 36 42 34 44 37 32 60 55 55 31 30 19
84 100 100 90 98 86 73 49 50 83 97 71 93 78 98 98 92 66 86 81 58 33 27 23 29 28 16 19 33 40 35 20 28 36 49 41 54 54 48 33 29 31 16 13
79 100 100 83 75 86 83 90 46 70 50 95 91 98 100 73 83 70 58 40 43 33 18 14 10 17 32 31 41 36 23 26 22 38 36 63 48 19 23 34 31 13 14 15
93 100 92 52 72 83 100 95 81 100 99 100 99 100 96 100 95 87 38 38 32 21 13 8 17 28 27 23 17 16 33 35 34 33 36 17 15 18 30 30 15 15 17 15
96 96 73 57 59 82 95 92 90 92 98 96 100 96 89 85 85 56 46 30 10 9 7 9 12 18 23 19 19 19 25 34 39 30 19 13 16 27 33 22 16 19 17 16
99 95 65 61 70 86 99 71 84 75 76 77 88 100 80 87 76 93 65 24 14 18 17 17 13 11 14 14 16 18 24 28 25 22 15 14 23 33 31 17 19 17 16 18
99 95 68 74 89 100 83 57 100 92 66 74 71 56 94 90 91 72 49 18 10 13 10 8 8 9 14 15 16 18 19 18 16 12 13 24 35 31 17 19 18 18 20 23
100 91 74 100 100 92 65 88 99 86 66 63 70 61 60 37 76 55 32 21 12 14 14 14 11 8 11 16 17 17 18 17 17 21 27 34 24 18 20 21 23 24 26 32
100 87 98 100 96 100 96 88 94 91 68 70 71 48 57 99 77 32 22 17 14 11 10 11 17 11 8 12 16 20 22 25 26 25 19 18 20 22 23 24 26 34 46 55
94 100 100 100 97 100 97 98 90 95 85 96 78 89 99 88 50 45 39 22 15 13 12 12 26 26 14 9 15 18 19 16 17 18 18 20 21 24 28 32 44 54 77 97
69 100 99 87 88 99 96 98 100 84 80 82 60 72 88 100 61 65 59 46 33 31 26 22 29 30 16 12 14 14 16 19 20 20 22 24 30 38 60 85 85 89 95 100
57 100 99 100 98 93 100 99 98 97 92 83 79 81 74 81 77 73 78 70 56 45 41 43 41 34 21 16 16 16 18 23 30 66 38 43 56 85 98 100 100 98 98 100
90 100 100 98 98 97 97 100 99 100 98 92 96 90 90 78 99 93 81 82 80 78 87 82 66 67 82 81 69 46 32 33 34 45 91 98 98 100 100 100 100 100 100 100
96 86 83 87 84 88 94 97 94 93 86 90 93 91 89 89 85 84 93 88 94 97 97 98 97 99 100 98 99 100 97 93 78 76 93 96 100 100 100 100 100 100 100 100
83 72 70 84 93 97 96 98 99 99 96 93 97 96 93 86 91 100 98 100 100 99 95 95 99 100 100 100 100 100 100 100 100 100 100 100 100 100 100 100 100 100 100 100
82 75 78 79 67 74 70 40 29 32 38 43 45 45 39 42 61 86 65 62 79 50 72 99 99 99 99 98 100 99 100 100 100 100 100 100 100 100 100 100 100 100 100 100
64 77 43 41 36 56 36 19 19 19 18 19 19 17 18 31 38 36 37 53 53 64 85 90 87 100 100 79 100 100 100 100 100 100 100 100 100 100 100 100 100 100 100 100
56 45 55 52 34 30 27 26 22 17 15 15 14 13 14 16 18 22 25 99 50 86 67 77 76 70 80 71 100 100 100 100 100 100 100 100 100 100 100 100 100 100 100 100
96 90 62 37 22 18 17 17 16 15 12 10 10 11 12 13 15 22 29 33 34 47 100 100 98 64 100 100 100 100 100 100 100 100 100 100 100 100 100 100 100 100 100 100
25 16 13 14 15 15 15 14 14 13 12 12 13 17 28 38 51 89 94 84 48 56 94 81 70 72 88 100 100 100 100 100 100 100 100 100 100 100 100 100 100 100 100 100
12 13 14 16 18 18 16 14 13 12 12 15 19 29 57 96 100 100 100 93 72 71 100 100 100 100 100 100 100 100 100 100 100 100 100 100 100 100 100 100 99 100 97 82
93 90 82 71 82 94 97 100 99 94 91 99 99 95 100 100 100 100 100 100 100 100 100 100 100 100 100 100 100 100 100 100 100 100 100 100 100 100 100 96 86 65 38 16
100 100 100 100 100 100 100 100 100 100 100 100 100 100 100 100 100 100 100 100 100 100 100 100 100 100 100 100 100 100 100 100 100 100 100 100 96 86 66 40 22 11 8 9
100 100 100 100 100 100 100 97 99 100 100 100 100 100 100 100 100 100 100 100 100 100 100 100 100 100 100 100 100 100 100 99 98 94 82 55 30 15 8 7 8 9 11 13
100 100 100 100 100 100 100 100 100 100 100 100 100 100 100 100 100 100 100 100 100 100 100 100 100 100 100 100 99 98 91 73 50 27 14 9 7 8 8 10 11 11 11 11
100 100 100 100 100 100 100 100 100 100 100 100 100 100 100 100 100 100 100 100 100 100 100 100 100 97 90 76 55 34 20 12 9 8 8 9 10 10 10 9 9 9 11 13
100 100 100 100 100 100 100 99 100 100 99 100 99 100 100 98 98 98 97 97 96 90 83 70 51 30 17 13 12 10 10 10 10 11 11 10 9 9 9 10 12 13 12 10

GFSNGP_500_rhum_066.txt.gz
RH
38 74 100 100 97 88 78 73 64 44 30 40 43 50 89 78 66 82 84 73 71 71 62 47 50 34 24 22 34 42 35 24 42 50 37 53 61 59 61 40 64 52 32 28
47 67 96 96 100 97 88 86 80 60 32 91 95 86 81 76 98 96 88 77 58 71 59 66 51 32 24 21 17 16 45 52 49 47 40 55 51 59 59 48 51 17 18 27
48 84 94 98 64 92 91 100 94 56 40 46 71 96 89 77 70 70 77 80 94 85 61 44 47 34 24 18 20 47 34 34 37 43 55 50 55 54 42 39 15 15 20 34
53 100 100 39 73 85 90 99 90 65 60 48 56 88 96 94 98 90 90 84 58 37 39 30 20 13 9 18 24 23 19 21 28 31 46 41 38 36 33 24 14 18 33 42
86 74 65 56 57 80 95 91 95 91 95 95 82 78 69 58 90 98 99 60 41 41 24 14 11 7 9 11 14 14 14 22 24 24 28 36 41 32 24 20 13 18 29 33
100 100 88 53 67 89 100 83 96 100 94 97 96 86 93 85 66 83 92 70 50 36 13 9 10 13 13 15 12 9 11 18 15 15 16 17 19 18 16 12 13 21 30 28
100 99 88 72 87 96 98 58 100 100 75 100 94 84 100 95 58 71 82 61 64 97 55 16 10 11 12 12 10 8 8 11 13 14 15 16 16 14 13 16 21 27 26 16
99 99 100 100 100 99 91 92 100 99 86 99 99 97 95 75 61 44 51 55 61 47 36 30 19 14 15 13 12 14 12 8 11 13 14 17 19 21 24 28 27 18 17 20
92 98 100 100 99 85 78 84 100 100 97 99 90 99 91 67 70 36 29 34 47 54 48 36 26 23 17 15 15 23 25 15 11 13 16 21 29 31 29 20 17 19 22 24
97 100 100 99 96 95 92 100 100 96 86 96 98 70 68 63 65 60 50 51 85 72 31 31 29 23 18 16 15 24 24 18 14 17 21 25 24 20 18 18 20 24 28 44
93 93 79 91 94 90 100 95 100 95 93 100 93 82 99 74 79 100 89 100 96 71 61 55 51 44 34 27 30 32 26 22 17 16 18 20 20 19 20 22 40 66 75 68
86 59 39 46 71 85 86 99 99 98 100 90 99 100 100 83 98 95 91 88 88 77 76 75 77 74 65 53 54 54 53 59 63 65 57 45 46 46 45 48 44 50 78 98
83 57 35 29 42 99 100 93 94 89 95 100 100 99 100 90 98 90 82 93 88 76 80 83 93 92 86 89 97 98 96 94 97 99 100 100 100 100 100 100 100 100 100 100
75 37 24 25 36 65 98 93 100 100 99 98 99 99 100 99 89 95 98 100 93 93 90 90 99 93 94 95 94 97 99 100 100 96 96 98 98 95 97 100 100 100 99 100
68 38 28 34 53 78 81 89 96 98 96 96 98 99 99 99 99 99 99 98 94 99 100 96 100 100 100 100 82 89 98 100 100 100 100 97 100 100 100 100 100 100 100 100
56 52 58 66 91 93 92 99 97 91 90 93 93 89 95 97 87 53 48 64 73 100 100 98 98 93 90 85 77 100 100 100 93 100 100 71 74 100 100 100 100 100 100 100
76 56 46 77 90 92 96 98 90 79 76 73 66 50 39 56 73 62 33 26 20 20 32 37 36 27 32 55 100 100 100 84 83 78 82 95 100 100 100 100 100 100 100 100
85 46 31 38 65 93 99 100 99 98 77 53 57 45 24 21 23 18 16 14 12 12 14 20 24 48 87 100 99 67 67 92 100 100 100 77 78 100 100 100 100 100 100 100
77 39 38 55 80 65 67 95 80 50 43 34 26 22 20 16 15 14 13 12 12 14 18 32 49 68 80 82 83 82 57 78 85 100 100 100 100 100 100 100 100 100 100 100
80 76 93 100 100 90 55 37 35 34 26 20 18 17 16 16 15 14 15 19 30 45 49 95 98 100 100 100 100 100 89 92 100 100 100 100 100 100 100 100 100 100 100 100
79 77 65 56 67 43 18 18 19 19 18 21 22 21 26 44 59 67 85 92 95 100 100 100 100 100 100 100 100 100 100 100 100 100 100 100 100 100 100 100 100 100 100 100
90 83 67 54 67 79 80 69 81 83 86 97 100 100 100 100 100 100 100 100 100 100 100 100 100 100 100 100 100 100 100 100 100 100 100 100 100 100 100 100 100 94 72 37
100 100 100 100 100 100 100 100 100 100 100 100 100 100 100 100 100 100 100 100 100 100 100 100 100 100 100 100 100 100 100 100 100 100 100 100 100 96 81 55 30 15 9 8
100 100 100 100 100 100 100 100 100 100 100 100 100 100 100 100 100 100 100 100 100 100 100 100 100 100 100 100 100 100 100 100 99 96 83 53 28 17 12 8 7 8 8 9
100 100 100 100 100 100 100 100 100 100 100 100 100 100 100 100 100 100 100 100 100 100 100 100 100 100 99 98 96 89 74 49 26 16 11 8 8 8 9 9 10 10 10 9
100 100 100 100 100 100 100 100 100 100 100 100 100 100 100 100 100 100 100 100 99 97 91 84 77 66 53 38 23 14 10 9 8 9 9 10 11 11 10 10 10 10 11 12
51 66 69 59 50 48 47 48 46 52 58 60 59 61 54 50 44 42 39 33 28 25 24 20 15 11 10 10 10 10 10 11 12 12 11 11 11 12 12 13 14 15 14 12

GFSNGP_500_rhum_069.txt.gz
RH
16 29 67 62 79 94 79 66 70 57 57 59 43 30 22 55 58 58 73 71 79 74 70 52 59 46 40 38 40 32 34 57 60 62 59 42 58 62 61 71 74 66 65 71
34 56 75 91 68 65 85 82 62 73 61 76 63 50 38 22 34 65 92 80 83 87 73 74 100 86 61 42 35 32 23 25 54 69 50 46 43 52 63 68 65 72 78 64
81 74 85 75 38 66 81 87 81 65 72 78 77 71 43 55 51 47 91 97 99 84 68 66 94 84 70 60 52 40 12 45 53 56 37 38 41 43 52 56 51 60 59 42
98 100 100 52 92 79 92 81 83 77 81 84 84 74 38 37 58 67 63 76 79 61 69 66 80 67 62 36 19 15 12 26 38 48 45 42 35 34 41 46 60 65 68 62
74 100 92 76 74 92 99 78 95 74 84 84 84 68 57 50 48 66 74 60 76 88 89 57 34 36 28 19 16 15 17 33 41 40 32 23 30 29 38 63 61 55 57 43
33 84 93 87 100 100 99 61 90 98 95 76 92 75 68 65 54 60 70 76 92 100 98 56 40 30 14 14 14 15 15 25 22 15 14 20 15 14 16 51 59 55 33 20
26 52 62 71 100 100 94 39 100 92 81 89 98 88 96 100 97 72 70 91 89 83 55 34 33 27 15 10 10 11 13 20 19 17 15 12 12 14 15 51 28 20 21 23
31 37 48 52 78 98 95 73 92 100 77 75 81 77 98 94 100 98 86 93 77 83 58 40 31 37 37 25 16 13 10 12 14 12 17 20 16 13 15 17 21 24 27 32
35 34 32 19 54 98 100 94 100 96 93 76 80 77 86 97 100 100 100 98 81 51 51 34 40 57 51 43 33 24 19 18 16 14 16 22 24 22 18 19 23 27 29 29
47 30 54 36 18 69 100 100 93 100 98 95 88 79 91 100 100 98 100 100 85 69 57 48 57 73 91 55 52 42 34 28 25 22 21 21 24 23 22 19 19 20 22 24
38 34 69 100 82 79 98 100 97 98 98 99 97 99 90 99 100 97 98 100 89 70 64 89 100 98 78 79 74 66 62 61 53 46 43 41 39 36 37 43 51 53 59 66
46 58 33 50 92 88 99 98 81 83 95 98 100 99 97 98 100 99 99 99 99 98 93 100 99 98 98 97 94 92 90 88 89 78 91 98 97 96 95 98 100 100 100 100
82 66 88 74 76 100 100 69 56 80 91 100 96 98 99 93 85 99 100 99 96 96 94 99 94 92 99 99 100 98 95 97 97 97 100 100 100 99 100 99 100 100 100 100
99 98 98 86 96 93 97 46 43 75 94 96 96 99 91 89 83 100 100 100 100 100 100 99 94 85 96 96 98 99 100 100 100 100 100 97 97 100 100 100 100 99 93 89
100 96 100 95 74 68 72 57 46 55 95 90 82 80 87 99 99 100 99 98 100 100 100 93 94 96 99 100 100 100 100 100 100 100 100 100 100 100 100 100 100 100 100 100
98 99 82 89 100 99 68 68 75 51 70 70 71 70 69 80 93 99 99 100 100 100 100 99 100 90 98 98 100 98 74 66 83 42 43 68 100 100 100 100 98 82 91 100
100 100 99 90 69 96 89 97 100 99 87 89 92 82 96 92 87 92 98 94 93 96 98 95 87 69 34 24 19 19 24 27 25 26 76 96 100 100 82 59 59 58 91 84
93 100 95 86 79 62 97 100 100 100 100 99 98 95 86 72 53 72 67 64 81 81 73 65 24 14 12 11 12 14 21 31 44 61 81 89 92 94 91 95 100 98 98 100
100 96 92 100 91 56 62 64 60 67 64 83 95 98 88 90 96 97 77 56 41 32 21 18 16 15 16 22 30 43 45 71 100 100 100 100 100 100 100 100 100 99 99 100
86 96 95 100 97 77 51 38 57 100 100 90 90 90 93 94 89 47 29 26 28 33 38 46 54 73 93 97 98 99 100 100 100 100 100 100 100 100 100 100 100 100 100 100
100 99 97 97 100 93 75 73 84 100 100 100 95 72 61 45 66 62 78 97 100 100 100 100 100 100 100 100 100 100 100 100 100 100 100 100 100 100 100 100 100 100 100 100
86 100 100 98 96 93 92 99 100 100 97 78 69 78 97 100 100 100 100 100 100 100 100 100 100 100 100 100 100 100 100 100 100 100 100 100 100 100 100 100 100 100 97 86
97 99 100 94 77 93 96 86 63 92 100 100 100 100 100 100 100 100 100 100 100 100 100 100 100 100 100 100 100 100 100 100 100 100 100 100 100 100 93 74 44 18 9 9
75 100 99 85 80 99 100 100 100 100 100 100 100 100 100 100 100 100 100 100 100 100 100 100 100 100 100 100 100 100 100 100 100 98 84 54 25 12 8 8 8 9 9 9
100 100 100 100 100 100 100 100 100 100 100 100 100 100 100 100 100 100 100 100 100 100 100 100 100 100 99 98 91 76 55 31 16 10 8 8 8 9 9 10 10 10 10 10
81 80 70 77 84 88 92 95 96 97 99 99 97 97 97 96 95 93 91 88 80 70 59 53 44 34 24 17 12 10 8 8 8 9 9 10 10 10 11 11 11 11 12 13
9 9 10 9 9 9 8 8 9 14 22 28 28 28 26 25 28 29 30 29 27 24 20 15 12 10 9 9 9 9 10 10 10 11 11 11 12 12 12 14 16 18 19 17

GFSNGP_500_rhum_072.txt.gz
RH
7 13 23 28 26 38 39 42 51 45 51 68 69 74 78 61 48 58 91 71 87 86 86 74 48 48 46 47 47 53 55 53 37 27 60 64 67 59 58 59 86 61 72 84
12 9 22 26 30 63 60 60 49 45 40 60 66 82 81 74 44 28 26 64 64 71 80 92 82 70 64 59 63 70 67 55 46 48 46 72 89 63 48 46 56 56 55 66
67 92 85 25 43 60 68 66 62 60 48 55 60 78 78 75 71 55 34 38 60 53 88 85 93 94 88 77 66 68 64 53 51 44 32 68 86 71 72 64 60 75 84 81
87 100 90 38 91 58 86 77 67 63 72 87 85 84 76 78 84 83 62 73 79 72 70 89 96 91 80 98 81 74 60 35 25 15 15 34 52 68 64 56 45 62 77 58
65 100 79 85 100 100 92 64 69 68 64 69 79 81 73 89 99 92 73 47 39 76 85 100 98 79 96 81 76 51 39 23 19 13 14 34 43 45 50 74 63 36 24 50
31 48 65 72 98 96 83 38 100 88 66 74 88 57 68 98 99 96 77 58 51 74 70 94 94 83 76 68 72 75 29 21 16 16 38 40 29 17 17 21 20 14 15 18
28 28 18 30 50 85 88 62 84 79 77 69 80 76 72 95 96 100 100 87 88 79 98 100 99 93 69 60 70 61 58 44 27 14 12 17 14 15 13 16 19 17 19 43
32 31 28 33 37 28 51 81 84 99 90 92 75 88 92 81 75 98 97 100 99 98 99 97 97 98 74 40 48 52 60 40 32 30 26 20 16 16 16 15 17 22 31 50
28 20 19 24 30 30 30 27 82 91 100 99 79 80 74 66 76 98 99 100 98 100 99 100 100 100 100 91 77 55 56 57 51 33 28 24 21 18 16 19 24 28 32 24
32 25 30 26 29 32 40 50 87 80 98 100 88 92 84 70 73 63 77 78 89 86 98 99 98 99 87 96 100 83 65 83 59 46 52 53 55 55 52 51 50 48 52 57
28 33 35 28 34 37 53 56 72 70 61 100 100 97 86 94 98 86 99 98 95 86 73 79 95 92 90 79 96 95 100 85 94 86 84 86 87 91 88 82 84 92 97 100
44 49 42 37 35 36 43 100 100 93 94 97 99 100 92 77 96 99 99 100 100 100 99 89 96 100 100 89 98 97 99 90 95 95 91 93 97 98 96 91 90 94 98 100
50 53 54 39 31 32 42 40 93 100 97 96 96 98 77 66 75 100 100 100 97 100 99 99 97 100 100 94 96 91 90 96 97 93 97 97 98 100 100 100 100 100 96 90
25 43 61 47 38 44 96 99 94 100 100 100 77 88 91 91 80 86 93 99 100 92 92 89 89 91 91 100 100 90 92 96 89 92 99 100 100 100 100 100 100 100 100 100
67 78 74 65 53 82 100 99 99 100 100 99 95 65 87 92 86 78 74 77 94 98 100 100 100 100 100 94 98 100 100 98 94 98 100 98 99 98 96 96 97 97 87 69
93 81 66 88 99 100 100 100 95 97 100 100 100 77 62 68 59 64 78 73 79 95 99 100 100 100 100 98 100 100 94 88 94 97 88 67 74 55 40 50 72 70 57 66
100 62 99 100 100 99 100 99 93 99 100 100 95 86 57 50 50 71 75 76 80 75 77 82 84 96 99 98 99 99 99 99 91 72 47 18 18 20 28 38 60 86 97 100
100 97 100 99 96 91 96 97 85 75 90 99 95 100 82 59 56 74 91 90 83 71 71 67 74 83 95 94 91 82 66 37 24 19 17 18 26 42 62 75 95 100 100 100
88 94 99 90 90 96 76 75 76 67 63 82 98 100 100 100 98 96 98 100 100 91 89 95 89 72 65 58 55 45 33 30 34 61 92 100 100 100 100 100 100 100 100 100
99 94 100 100 100 98 96 87 85 92 85 66 62 86 95 100 100 100 99 100 100 99 98 92 78 64 51 48 63 91 98 100 100 100 100 100 100 100 100 100 100 100 100 100
98 91 100 100 99 93 99 100 100 100 100 97 73 61 79 93 98 100 100 98 93 72 99 100 100 100 100 100 100 100 100 100 100 100 100 100 100 100 100 100 100 100 100 100
100 100 100 99 95 87 88 96 97 95 100 100 100 89 88 96 96 99 100 100 100 100 100 100 100 100 100 100 100 100 100 100 100 100 100 100 100 100 100 100 100 100 99 90
96 96 83 89 94 91 91 97 100 100 100 100 100 100 100 97 98 100 100 100 100 100 100 100 100 100 100 100 100 100 100 100 100 100 100 100 100 100 96 81 52 24 10 8
81 77 77 88 98 96 100 100 100 100 100 100 100 100 100 100 100 100 100 100 100 100 100 100 100 100 100 100 100 100 100 100 100 99 88 66 35 18 10 8 7 7 8 9
90 85 98 100 100 100 100 100 100 100 100 100 100 100 100 100 100 100 100 100 100 100 100 100 100 99 97 93 84 67 47 29 18 12 8 7 7 8 8 9 10 10 11 11
100 100 100 100 100 100 100 100 100 100 100 100 95 86 85 85 83 78 72 66 62 54 46 40 36 31 25 18 13 10 9 8 8 8 9 9 10 11 11 12 12 12 12 12
16 17 16 20 34 45 52 60 67 69 68 61 56 50 48 50 47 42 40 39 33 28 22 16 11 10 9 9 9 9 10 10 11 11 12 12 12 12 12 12 13 15 17 21